星链-33803 (STARLINK-33803)

导读

STARLINK-33803是美国SpaceX公司星链(Starlink)项目旗下的卫星,该项目旨在构建全球卫星互联网星座。这颗卫星于2025年4月7日由美国发射,升空后将加入近地轨道的星链组网,为全球多地提供高速低延迟的宽带互联网服务,进一步扩充星链星座的规模与服务覆盖能力。

基本信息
目录编号:
63517
目录名称:
STARLINK-33803
国际标识:
2025-071AA
轨道中心:
EARTH
卫星名称:
星链-33803
卫星全名:
星链-33803 (STARLINK-33803)
卫星状态:
在轨 (已飞行515 天)
发射日期:
2025-04-07 UTC
国别 :
美国 (US)
星等 :
--
轨道信息
数据来源 国际轨道数据
星历时间: 2026-09-03T19:08:34+0800
19小时前
查看轨道信息
半长轴: 6840.88km
偏心率: 0.0001399
轨道倾角: 53.162°
近地点辐角 114.401°
升交点赤经 33.024°
平近点角 245.714°
近地点: 461.785km
远地点: 463.701km
周期: 93.849分钟
每日圈数: 15.343867
详细信息
固有亮度:
5
最大亮度:
2.5
卫星平台:
Starlink V1.0
覆盖范围:
全球
运营商:
太空探索技术公司
运营商所在国:
美国
制造商(研发单位):
太空探索技术公司
制造商所在国:
美国
使用方式:
暂无
卫星简介
Starlink 计划是 SpaceX 推出的全球卫星互联网项目,通过发射低轨道卫星,为全球尤其是偏远地区提供高速、低延迟的互联网服务。自 2019 年起,Starlink 已部署数千颗卫星,旨在缩小全球数字鸿沟,推动互联网普及。该项目还为军事、航空等行业提供通信支持,带来广泛经济效益。
2D轨道图
3D轨道图
轨道高度分析图
轨道倾角分析图
轨道综合分析图
查看轨道综合分析图
交会数据列表
事件ID 空间交会对象 最接近时刻(TCA) 交会距离 交会风险概率(CRP) 交会风险指数(CRI) 操作
CDM_260903-093606-351706-488122
OBJECT F (64881)
2026-09-03T
09:36:21+0000
1.335 km
极远距离
9.910482E-6 低风险 0.55
CDM_260904-141005-720306-351723
2026-09-04T
14:10:48+0000
2.321 km
极远距离
1.584745E-6 低风险 0.39
CDM_260903-190505-180906-351722
2026-09-03T
19:05:20+0000
2.693 km
极远距离
1.341992E-6 低风险 0.38
CDM_260904-212005-020006-351721
2026-09-04T
21:20:31+0000
2.933 km
极远距离
1.13855E-6 低风险 0.36
CDM_260830-125006-177906-351721
2026-08-30T
12:50:47+0000
2.743 km
极远距离
1.123887E-6 低风险 0.36
CDM_260904-175805-209006-351721
2026-09-04T
17:58:18+0000
2.861 km
极远距离
6.268226E-7 极低风险 0.31
CDM_260904-005005-317306-351721
2026-09-04T
00:50:36+0000
2.734 km
极远距离
5.137871E-7 极低风险 0.29